Jefferson City, MO

2:28 AM CDT on March 28, 2017 (GMT -0500)
Jefferson City Memorial

Weather History for KJEF - May, 2014

Change the Weather History Date:

Thursday, May 15, 2014

  Actual Average Record
Temperature  
Mean Temperature 51 °F -  
Max Temperature 60 °F 75 °F 91 °F (1941)
Min Temperature 41 °F 49 °F 33 °F (1959)
Degree Days  
Heating Degree Days 14    
Growing Degree Days 1 (Base 50)    
Moisture  
Dew Point 38 °F    
Average Humidity 64    
Maximum Humidity 89    
Minimum Humidity 33    
Precipitation  
Precipitation 0.01 in - - ()
Sea Level Pressure  
Sea Level Pressure 30.05 in    
Wind  
Wind Speed 5 mph (WNW)    
Max Wind Speed 20 mph    
Max Gust Speed 29 mph    
Visibility 10 miles    
Events      
Averages and records for this station are not official NWS values.
T = Trace of Precipitation, MM = Missing Value Source: NWS Daily Summary

Daily Weather History Graph

Daily Weather History Graph

Search for Another Location

Airport or City:

Trip Planner

Search our weather history database for the weather conditions in past years. The results will help you decide how hot, cold, wet, or windy it might be!

Date:

Astronomy

May. 15, 2014 Rise Set
Actual Time 5:56 AM CDT 8:13 PM CDT
Civil Twilight 5:27 AM CDT 8:43 PM CDT
Nautical Twilight 4:50 AM CDT 9:20 PM CDT
Astronomical Twilight 4:10 AM CDT 10:00 PM CDT
Moon 9:22 PM CDT (5/15) 6:43 AM CDT (5/15)
Length of Visible Light 15h 16m
Length of Day
14h 16m
Full, 99% of the Moon is Illuminated
May 15
Full
May 21
Last Quarter
May 28
New
Jun 5
First Quarter
Jun 12
Full

Hourly Weather History & Observations

Time (CDT) Temp. Windchill Dew Point Humidity Pressure Visibility Wind Dir Wind Speed Gust Speed Precip Events Conditions
12:53 AM 48.0 °F - 41.0 °F 77% 30.08 in 10.0 mi Calm Calm - N/A   Clear
1:53 AM 46.9 °F - 42.1 °F 83% 30.07 in 10.0 mi Calm Calm - N/A   Clear
2:53 AM 46.0 °F 44.8 °F 41.0 °F 83% 30.05 in 10.0 mi WNW 3.5 mph - N/A   Clear
3:53 AM 46.0 °F 44.8 °F 41.0 °F 83% 30.05 in 10.0 mi WNW 3.5 mph - N/A   Clear
4:53 AM 44.1 °F - 41.0 °F 89% 30.04 in 10.0 mi Calm Calm - N/A   Clear
5:53 AM 43.0 °F - 39.9 °F 89% 30.05 in 10.0 mi Calm Calm - N/A   Scattered Clouds
6:53 AM 46.0 °F 43.1 °F 41.0 °F 83% 30.06 in 10.0 mi West 5.8 mph - N/A   Overcast
7:53 AM 50.0 °F - 44.1 °F 80% 30.05 in 10.0 mi Calm Calm - 0.01 in   Mostly Cloudy
8:53 AM 51.1 °F - 45.0 °F 80% 30.06 in 10.0 mi NW 3.5 mph - N/A   Partly Cloudy
9:53 AM 55.0 °F - 45.0 °F 69% 30.05 in 10.0 mi Calm Calm - N/A   Partly Cloudy
10:53 AM 57.0 °F - 43.0 °F 59% 30.04 in 10.0 mi WSW 6.9 mph - N/A   Overcast
11:53 AM 59.0 °F - 43.0 °F 55% 30.03 in 10.0 mi West 15.0 mph 20.7 mph N/A   Mostly Cloudy
12:53 PM 59.0 °F - 45.0 °F 60% 30.02 in 10.0 mi WNW 15.0 mph - N/A   Partly Cloudy
2:53 PM 59.0 °F - 35.1 °F 41% 30.03 in 10.0 mi WNW 19.6 mph 28.8 mph N/A   Partly Cloudy
3:53 PM 59.0 °F - 32.0 °F 36% 30.02 in 10.0 mi WNW 17.3 mph 25.3 mph N/A   Partly Cloudy
4:53 PM 57.9 °F - 30.0 °F 35% 30.03 in 10.0 mi WNW 19.6 mph 25.3 mph N/A   Partly Cloudy
5:53 PM 57.9 °F - 28.9 °F 33% 30.05 in 10.0 mi WNW 17.3 mph 24.2 mph N/A   Mostly Cloudy
6:53 PM 55.9 °F - 30.0 °F 37% 30.06 in 10.0 mi WNW 17.3 mph - N/A   Mostly Cloudy
7:53 PM 55.0 °F - 30.0 °F 38% 30.06 in 10.0 mi NW 11.5 mph 19.6 mph N/A   Partly Cloudy
8:53 PM 52.0 °F - 32.0 °F 47% 30.08 in 10.0 mi NW 3.5 mph - N/A   Clear
9:53 PM 50.0 °F - 32.0 °F 50% 30.09 in 10.0 mi Calm Calm - N/A   Clear
10:53 PM 45.0 °F 43.5 °F 36.0 °F 71% 30.10 in 10.0 mi NNW 3.5 mph - N/A   Clear
11:53 PM 41.0 °F - 37.0 °F 86% 30.09 in 10.0 mi Calm Calm - N/A   Clear